Regional Weather Roundup
Issued by NWS

Home | Current Version | Previous Version | Text Only | Print | Product List | Glossary On
Versions: 1 2 3 4 5 6 7 8 9 10 11 12 13 14 15 16 17 18 19 20 21 22 23 24 25 26 27 28 29 30 31 32 33 34 35 36 37 38 39 40 41 42 43 44 45 46 47 48 49 50
958
ASUS43 KTOP 190859
RWRKS

WEATHER ROUNDUP FOR KANSAS
NATIONAL WEATHER SERVICE GOODLAND KS
300 AM CST SUN NOV 19 2017

NOTE:  "FAIR" INDICATES FEW OR NO CLOUDS BELOW 12,000 FEET WITH NO
SIGNIFICANT WEATHER AND/OR OBSTRUCTIONS TO VISIBILITY.

KSZ001>006-013>018-027>032-041>047-191000-
NORTHWEST KANSAS

CITY           SKY/WX    TMP DP  RH WIND       PRES   REMARKS
GOODLAND       CLOUDY    25  14  63 SW9       30.24F
HAYS           CLEAR     27  20  75 NW6       30.27F
HILL CITY      CLEAR     28  20  71 W9        30.26F
RUSSELL        CLEAR     25  22  88 W8        30.25S
$$

KSZ061>065-074>080-084>089-191000-
SOUTHWEST KANSAS

CITY           SKY/WX    TMP DP  RH WIND       PRES   REMARKS
DODGE CITY     CLEAR     28  15  58 SW6       30.29S
GARDEN CITY    CLEAR     22  13  68 W3        30.28S
GREAT BEND     CLEAR     26  21  81 SW5       30.28S
LIBERAL        CLOUDY    24  15  68 W7        30.30S
$$

KSZ066>073-081>083-090>101-191000-
SOUTHEAST KANSAS

CITY           SKY/WX    TMP DP  RH WIND       PRES   REMARKS
CHANUTE        CLEAR     33  27  78 W5        30.26R
COFFEYVILLE    CLEAR     37  29  72 NW5       30.27R
HUTCHINSON     CLEAR     27  22  81 W5        30.27S
MEDICINE LODGE   N/A     27  21  78 NW6       30.30S
NEWTON         CLEAR     31  24  75 W7        30.28R
PARSONS        CLEAR     30  28  92 N3        30.27R
WICHITA INTL   CLEAR     33  25  72 NW5       30.28R
WICHITA JABRA  CLEAR     34  26  72 W9        30.28R
WICHITA MCCONL CLEAR     35  24  63 CALM      30.28R
WINFIELD       CLEAR     29  24  82 CALM      30.30R
$$

KSZ007>012-019>026-033>040-048>060-102>105-191000-
NORTHEAST KANSAS

CITY           SKY/WX    TMP DP  RH WIND       PRES   REMARKS
CONCORDIA      CLEAR     32  24  72 W6        30.25S
EMPORIA        CLEAR     30  24  78 W5        30.25R
LAWRENCE       CLEAR     28  25  88 CALM      30.25R
MANHATTAN      PTCLDY    29  23  78 CALM      30.26R
OLATHE IND     CLEAR     31  25  78 NW6       30.24R
OLATHE EXE     CLEAR     32  26  78 NW6       30.23R
SALINA         CLEAR     30  23  75 S3        30.27S
TOPEKA BILLARD PTCLDY    29  25  85 W3        30.26R
TOPEKA FORBES  PTCLDY    30  26  85 NW5       30.25R
$$




USA.gov is the U.S. government's official web portal to all federal, state and local government web resources and services.